Date String (YYYY-MM-DD hh:mm:ss) UTC,Instrument flags,Ambient pressure (hPa),Sample flow (lpm),Bypass flow (lpm),Sample temperature (°C),Ambient temperature (°C),ASC tube jacket temperature (°C),LED temperature (°C),Box temperature (°C),Sample RH (%),Span deviation,Mass concentration (μg/m³),Mass concentration (μg/m³),Mass concentration (μg/m³)
DateTimeUTC,F1_M11,P_M11,Q1_M11,Q2_M11,T1_M11,T2_M11,T3_M11,T4_M11,T5_M11,U1_M11,ZSPAN_M11,X0_M11,X2_M11,X1_M11
2022-02-07 00:00:00,,0832.4,5.00,0.00,22.1,21.3,00.0,31.2,23.8,09.2,0000.0,0004.33,0002.22,0001.79
2022-02-07 00:01:00,,0832.4,5.01,0.00,22.1,21.3,00.0,31.2,23.7,09.3,0000.0,0004.44,0002.24,0001.81
2022-02-07 00:02:00,,0832.3,4.99,0.00,22.0,21.3,00.0,31.2,23.7,09.3,0000.0,0004.38,0002.23,0001.84
2022-02-07 00:03:00,,0832.3,5.00,0.00,22.0,21.2,00.0,31.2,23.7,09.3,0000.0,0004.45,0002.24,0001.84
2022-02-07 00:04:00,,0832.3,5.01,0.00,22.0,21.2,00.0,31.1,23.7,09.3,0000.0,0003.96,0002.21,0001.85
2022-02-07 00:05:00,,0832.3,4.99,0.00,22.0,21.2,00.0,31.1,23.7,09.3,0000.0,0003.95,0002.25,0001.85
2022-02-07 00:06:00,,0832.3,5.01,0.00,22.0,21.2,00.0,31.1,23.7,09.2,0000.0,0003.89,0002.24,0001.87
2022-02-07 00:07:00,,0832.2,4.98,0.00,22.0,21.2,00.0,31.1,23.6,09.2,0000.0,0003.78,0002.20,0001.87
2022-02-07 00:08:00,,0832.3,5.01,0.00,22.0,21.1,00.0,31.1,23.6,09.3,0000.0,0003.65,0002.21,0001.88
2022-02-07 00:09:00,,0832.3,5.00,0.00,22.0,21.1,00.0,31.1,23.7,09.3,0000.0,0003.56,0002.22,0001.90
2022-02-07 00:10:00,,0832.3,5.00,0.00,22.0,21.1,00.0,31.1,23.7,09.3,0000.0,0003.58,0002.24,0001.91
2022-02-07 00:11:00,,0832.3,5.01,0.00,21.9,21.1,00.0,31.1,23.6,09.3,0000.0,0003.48,0002.25,0001.92
2022-02-07 00:12:00,,0832.2,5.00,0.00,21.9,21.1,00.0,31.0,23.6,09.2,0000.0,0003.48,0002.27,0001.92
2022-02-07 00:13:00,,0832.2,5.00,0.00,21.9,21.1,00.0,31.0,23.6,09.3,0000.0,0003.56,0002.29,0001.93
2022-02-07 00:14:00,,0832.2,5.02,0.00,21.9,21.0,00.0,31.0,23.6,09.3,0000.0,0003.61,0002.33,0001.93
2022-02-07 00:15:00,,0832.2,4.99,0.00,21.9,21.1,00.0,31.0,23.5,09.3,0000.0,0003.69,0002.35,0001.94
2022-02-07 00:16:00,,0832.3,4.99,0.00,21.9,21.0,00.0,31.0,23.5,09.4,0000.0,0003.81,0002.39,0001.95
2022-02-07 00:17:00,,0832.3,5.01,0.00,21.9,21.0,00.0,31.0,23.5,09.3,0000.0,0004.76,0002.43,0001.95
2022-02-07 00:18:00,,0832.3,4.98,0.00,21.9,21.1,00.0,31.0,23.5,09.4,0000.0,0004.87,0002.48,0001.96
2022-02-07 00:19:00,,0832.3,5.01,0.00,21.9,21.1,00.0,31.0,23.5,09.4,0000.0,0004.95,0002.52,0001.97
2022-02-07 00:20:00,,0832.3,4.99,0.00,21.9,21.1,00.0,31.0,23.5,09.4,0000.0,0004.85,0002.54,0001.97
2022-02-07 00:21:00,,0832.2,5.00,0.00,21.9,21.1,00.0,30.9,23.5,09.5,0000.0,0004.95,0002.53,0001.98
2022-02-07 00:22:00,,0832.3,4.99,0.00,21.8,21.1,00.0,30.9,23.5,09.6,0000.0,0005.28,0002.54,0001.98
2022-02-07 00:23:00,,0832.2,5.01,0.00,21.8,21.1,00.0,30.9,23.5,09.5,0000.0,0005.12,0002.49,0001.96
2022-02-07 00:24:00,,0832.2,5.01,0.00,21.8,21.1,00.0,30.9,23.5,09.5,0000.0,0005.01,0002.45,0001.95
2022-02-07 00:25:00,,0832.2,4.99,0.00,21.8,21.1,00.0,30.9,23.5,09.5,0000.0,0005.62,0002.41,0001.93
2022-02-07 00:26:00,,0832.2,5.02,0.00,21.8,21.2,00.0,30.9,23.5,09.6,0000.0,0005.63,0002.39,0001.92
2022-02-07 00:27:00,,0832.1,4.99,0.00,21.8,21.1,00.0,30.9,23.5,09.7,0000.0,0005.61,0002.33,0001.90
2022-02-07 00:28:00,,0832.2,5.00,0.00,21.8,21.1,00.0,30.9,23.5,09.6,0000.0,0004.69,0002.29,0001.89
2022-02-07 00:29:00,,0832.2,5.02,0.00,21.8,21.1,00.0,30.9,23.5,09.6,0000.0,0004.50,0002.21,0001.88
2022-02-07 00:30:00,,0832.2,4.99,0.00,21.8,21.1,00.0,30.9,23.5,09.5,0000.0,0004.48,0002.16,0001.87
2022-02-07 00:31:00,,0832.2,5.00,0.00,21.8,21.1,00.0,30.9,23.5,09.6,0000.0,0004.52,0002.13,0001.86
2022-02-07 00:32:00,,0832.2,5.01,0.00,21.8,21.1,00.0,30.9,23.5,09.6,0000.0,0004.37,0002.11,0001.86
2022-02-07 00:33:00,,0832.2,5.01,0.00,21.8,21.1,00.0,30.9,23.5,09.6,0000.0,0004.05,0002.11,0001.87
2022-02-07 00:34:00,,0832.2,5.00,0.00,21.8,21.2,00.0,30.9,23.5,09.5,0000.0,0004.14,0002.16,0001.88
2022-02-07 00:35:00,,0832.2,4.99,0.00,21.8,21.2,00.0,30.9,23.6,09.4,0000.0,0004.35,0002.19,0001.89
2022-02-07 00:36:00,,0832.2,5.01,0.00,21.9,21.3,00.0,30.9,23.6,09.3,0000.0,0003.67,0002.21,0001.90
2022-02-07 00:37:00,,0832.3,4.99,0.00,21.9,21.3,00.0,30.9,23.7,09.2,0000.0,0003.59,0002.22,0001.91
2022-02-07 00:38:00,,0832.3,5.01,0.00,21.9,21.4,00.0,30.9,23.7,09.2,0000.0,0003.48,0002.22,0001.91
2022-02-07 00:39:00,,0832.3,5.00,0.00,21.9,21.4,00.0,30.9,23.7,09.1,0000.0,0003.49,0002.23,0001.91
2022-02-07 00:40:00,,0832.3,4.99,0.00,21.9,21.4,00.0,30.9,23.7,09.0,0000.0,0003.62,0002.25,0001.91
2022-02-07 00:41:00,,0832.2,4.99,0.00,21.9,21.4,00.0,30.9,23.7,08.9,0000.0,0004.11,0002.28,0001.91
2022-02-07 00:42:00,,0832.3,5.00,0.00,21.9,21.3,00.0,30.9,23.7,08.9,0000.0,0005.23,0002.29,0001.91
2022-02-07 00:43:00,,0832.3,5.00,0.00,21.9,21.3,00.0,30.9,23.6,08.9,0000.0,0006.15,0002.32,0001.91
2022-02-07 00:44:00,,0832.3,5.02,0.00,21.9,21.2,00.0,30.9,23.6,08.9,0000.0,0007.32,0002.30,0001.90
2022-02-07 00:45:00,,0832.3,4.99,0.00,21.9,21.2,00.0,30.9,23.5,08.9,0000.0,0007.43,0002.29,0001.88
2022-02-07 00:46:00,,0832.4,5.00,0.00,21.8,21.1,00.0,30.9,23.5,08.9,0000.0,0007.33,0002.26,0001.88
2022-02-07 00:47:00,,0832.4,5.02,0.00,21.8,21.1,00.0,30.9,23.5,08.8,0000.0,0007.36,0002.26,0001.88
2022-02-07 00:48:00,,0832.3,4.99,0.00,21.8,21.1,00.0,30.9,23.5,08.7,0000.0,0007.47,0002.34,0001.89
2022-02-07 00:49:00,,0832.4,5.01,0.00,21.8,21.1,00.0,30.9,23.5,08.7,0000.0,0007.55,0002.38,0001.90
2022-02-07 00:50:00,,0832.3,4.99,0.00,21.8,21.1,00.0,30.8,23.5,08.6,0000.0,0007.54,0002.37,0001.90
2022-02-07 00:51:00,,0832.4,5.00,0.00,21.8,21.1,00.0,30.8,23.5,08.6,0000.0,0007.52,0002.39,0001.90
2022-02-07 00:52:00,,0832.4,4.99,0.00,21.8,21.2,00.0,30.8,23.5,08.6,0000.0,0007.40,0002.41,0001.90
2022-02-07 00:53:00,,0832.4,5.02,0.00,21.8,21.2,00.0,30.8,23.5,08.6,0000.0,0006.32,0002.45,0001.92
2022-02-07 00:54:00,,0832.4,5.00,0.00,21.8,21.2,00.0,30.8,23.5,08.6,0000.0,0006.57,0002.52,0001.92
2022-02-07 00:55:00,,0832.4,5.00,0.00,21.8,21.2,00.0,30.8,23.5,08.6,0000.0,0006.48,0002.61,0001.94
2022-02-07 00:56:00,,0832.4,4.99,0.00,21.8,21.3,00.0,30.8,23.5,08.6,0000.0,0007.29,0002.67,0001.97
2022-02-07 00:57:00,,0832.4,5.01,0.00,21.8,21.3,00.0,30.8,23.6,08.5,0000.0,0008.01,0002.77,0001.98
2022-02-07 00:58:00,,0832.4,4.99,0.00,21.8,21.3,00.0,30.8,23.6,08.5,0000.0,0008.07,0002.84,0001.98
2022-02-07 00:59:00,,0832.4,4.99,0.00,21.9,21.3,00.0,30.8,23.6,08.5,0000.0,0008.00,0002.79,0001.98
